Stündliche Wetter Abomey-Calavi

Heute, 23 Juni, Mittwoch

Zeit Temperatur Niederschläge Wind Luftdruck Luftfeuchtigkeit
00:00 +26°C° 0.7 mm 3 m/S 759 mmHg 89%
01:00 +26°C° 0 mm 4 m/S 758 mmHg 89%
02:00 +26°C° 0 mm 4 m/S 758 mmHg 89%
03:00 +26°C° 0 mm 4 m/S 757 mmHg 89%
04:00 +26°C° 0 mm 4 m/S 758 mmHg 89%
05:00 +26°C° 0 mm 3 m/S 758 mmHg 89%
06:00 +26°C° 0 mm 2 m/S 758 mmHg 90%
07:00 +27°C° 0.2 mm 3 m/S 759 mmHg 84%
08:00 +28°C° 0.2 mm 3 m/S 759 mmHg 79%
09:00 +29°C° 0.2 mm 3 m/S 759 mmHg 74%
10:00 +30°C° 0.9 mm 3 m/S 759 mmHg 73%
11:00 +30°C° 0.9 mm 3 m/S 758 mmHg 73%
12:00 +30°C° 0.9 mm 3 m/S 758 mmHg 72%
13:00 +30°C° 0.9 mm 3 m/S 758 mmHg 73%
14:00 +30°C° 0.9 mm 4 m/S 757 mmHg 74%
15:00 +30°C° 0.9 mm 4 m/S 757 mmHg 74%
16:00 +29°C° 0.2 mm 4 m/S 757 mmHg 77%
17:00 +28°C° 0.2 mm 3 m/S 758 mmHg 80%
18:00 +27°C° 0.2 mm 3 m/S 758 mmHg 83%
19:00 +27°C° 0 mm 3 m/S 758 mmHg 82%
20:00 +27°C° 0 mm 3 m/S 759 mmHg 82%
21:00 +27°C° 0 mm 3 m/S 759 mmHg 82%
22:00 +27°C° 0 mm 3 m/S 759 mmHg 83%
23:00 +27°C° 0 mm 4 m/S 759 mmHg 84%

Morgen, 24 Juni, Donnerstag

Zeit Temperatur Niederschläge Wind Luftdruck Luftfeuchtigkeit
00:00 +27°C° 0 mm 4 m/S 759 mmHg 85%
01:00 +26°C° 0.1 mm 4 m/S 758 mmHg 86%
02:00 +26°C° 0.1 mm 3 m/S 758 mmHg 87%
03:00 +26°C° 0.1 mm 3 m/S 758 mmHg 88%
04:00 +26°C° 0.8 mm 2 m/S 758 mmHg 89%
05:00 +26°C° 0.8 mm 2 m/S 759 mmHg 91%
06:00 +25°C° 0.8 mm 1 m/S 759 mmHg 92%
07:00 +26°C° 1.6 mm 1 m/S 759 mmHg 88%
08:00 +27°C° 1.6 mm 1 m/S 760 mmHg 85%
09:00 +28°C° 1.6 mm 1 m/S 760 mmHg 81%
10:00 +28°C° 1 mm 1 m/S 760 mmHg 81%
11:00 +28°C° 1 mm 2 m/S 759 mmHg 82%
12:00 +28°C° 1 mm 3 m/S 759 mmHg 82%
13:00 +29°C° 0.4 mm 3 m/S 759 mmHg 78%
14:00 +29°C° 0.4 mm 3 m/S 758 mmHg 74%
15:00 +30°C° 0.4 mm 3 m/S 758 mmHg 70%
16:00 +29°C° 0 mm 3 m/S 758 mmHg 74%
17:00 +28°C° 0 mm 3 m/S 758 mmHg 79%
18:00 +27°C° 0 mm 3 m/S 758 mmHg 83%
19:00 +27°C° 0 mm 3 m/S 759 mmHg 85%
20:00 +26°C° 0 mm 3 m/S 759 mmHg 88%
21:00 +26°C° 0 mm 3 m/S 759 mmHg 90%
22:00 +26°C° 0 mm 3 m/S 759 mmHg 91%
23:00 +26°C° 0 mm 2 m/S 759 mmHg 92%

übermorgen, 25 Juni, Freitag

Zeit Temperatur Niederschläge Wind Luftdruck Luftfeuchtigkeit
00:00 +25°C° 0 mm 2 m/S 759 mmHg 93%
01:00 +25°C° 0.1 mm 2 m/S 759 mmHg 94%
02:00 +25°C° 0.1 mm 2 m/S 759 mmHg 95%
03:00 +25°C° 0.1 mm 2 m/S 758 mmHg 95%
04:00 +25°C° 0.1 mm 2 m/S 759 mmHg 95%
05:00 +25°C° 0.1 mm 2 m/S 759 mmHg 94%
06:00 +25°C° 0.1 mm 1 m/S 759 mmHg 94%
07:00 +26°C° 0 mm 1 m/S 759 mmHg 86%
08:00 +28°C° 0 mm 1 m/S 760 mmHg 78%
09:00 +30°C° 0 mm 1 m/S 760 mmHg 70%
10:00 +31°C° 0.4 mm 1 m/S 760 mmHg 67%
11:00 +31°C° 0.4 mm 1 m/S 759 mmHg 65%
12:00 +32°C° 0.4 mm 1 m/S 759 mmHg 62%
13:00 +31°C° 0.1 mm 2 m/S 759 mmHg 69%
14:00 +30°C° 0.1 mm 2 m/S 758 mmHg 75%
15:00 +28°C° 0.1 mm 2 m/S 757 mmHg 81%
16:00 +28°C° 0.1 mm 2 m/S 758 mmHg 82%
17:00 +28°C° 0.1 mm 2 m/S 758 mmHg 83%
18:00 +27°C° 0.1 mm 2 m/S 758 mmHg 84%
19:00 +27°C° 0.9 mm 2 m/S 758 mmHg 87%
20:00 +26°C° 0.9 mm 2 m/S 759 mmHg 90%
21:00 +26°C° 0.9 mm 2 m/S 759 mmHg 92%
22:00 +26°C° 0.1 mm 2 m/S 759 mmHg 92%
23:00 +26°C° 0.1 mm 2 m/S 759 mmHg 92%

26 Juni, Samstag

Zeit Temperatur Niederschläge Wind Luftdruck Luftfeuchtigkeit
00:00 +26°C° 0.1 mm 2 m/S 758 mmHg 92%
01:00 +26°C° 0 mm 2 m/S 758 mmHg 92%
02:00 +26°C° 0 mm 2 m/S 758 mmHg 91%
03:00 +26°C° 0 mm 2 m/S 758 mmHg 91%
04:00 +26°C° 0 mm 2 m/S 758 mmHg 91%
05:00 +26°C° 0 mm 2 m/S 758 mmHg 92%
06:00 +26°C° 0 mm 2 m/S 759 mmHg 92%
07:00 +27°C° 0.2 mm 1 m/S 759 mmHg 86%
08:00 +29°C° 0.2 mm 1 m/S 759 mmHg 81%
09:00 +30°C° 0.2 mm 1 m/S 760 mmHg 76%
10:00 +31°C° 1.1 mm 1 m/S 759 mmHg 72%
11:00 +31°C° 1.1 mm 2 m/S 759 mmHg 69%
12:00 +32°C° 1.1 mm 2 m/S 758 mmHg 65%
13:00 +32°C° 0.6 mm 2 m/S 758 mmHg 66%
14:00 +33°C° 0.6 mm 3 m/S 757 mmHg 67%
15:00 +31°C° 0.6 mm 3 m/S 757 mmHg 67%
16:00 +30°C° 0.1 mm 3 m/S 757 mmHg 71%
17:00 +29°C° 0.1 mm 3 m/S 757 mmHg 75%
18:00 +28°C° 0.1 mm 3 m/S 758 mmHg 79%
19:00 +28°C° 0 mm 3 m/S 758 mmHg 81%
20:00 +28°C° 0 mm 3 m/S 758 mmHg 83%
21:00 +27°C° 0 mm 4 m/S 758 mmHg 84%
22:00 +27°C° 0 mm 4 m/S 758 mmHg 85%
23:00 +27°C° 0 mm 4 m/S 758 mmHg 86%

27 Juni, Sonntag

Zeit Temperatur Niederschläge Wind Luftdruck Luftfeuchtigkeit
00:00 +27°C° 0 mm 4 m/S 758 mmHg 87%
01:00 +27°C° 0 mm 4 m/S 758 mmHg 88%
02:00 +26°C° 0 mm 3 m/S 757 mmHg 89%
03:00 +26°C° 0 mm 3 m/S 757 mmHg 90%
04:00 +26°C° 0 mm 3 m/S 758 mmHg 91%
05:00 +26°C° 0 mm 3 m/S 758 mmHg 91%
06:00 +26°C° 0 mm 2 m/S 759 mmHg 92%
07:00 +28°C° 0 mm 2 m/S 759 mmHg 84%
08:00 +29°C° 0 mm 2 m/S 759 mmHg 76%
09:00 +31°C° 0 mm 3 m/S 760 mmHg 68%
10:00 +31°C° 0.3 mm 3 m/S 759 mmHg 69%
11:00 +31°C° 0.3 mm 3 m/S 759 mmHg 71%
12:00 +31°C° 0.3 mm 3 m/S 759 mmHg 72%
13:00 +30°C° 2.7 mm 3 m/S 758 mmHg 76%
14:00 +29°C° 2.7 mm 3 m/S 757 mmHg 79%
15:00 +29°C° 2.7 mm 2 m/S 757 mmHg 83%
16:00 +27°C° 14 mm 3 m/S 757 mmHg 86%
17:00 +26°C° 14 mm 4 m/S 757 mmHg 90%
18:00 +25°C° 14 mm 5 m/S 757 mmHg 93%
19:00 +25°C° 0.1 mm 4 m/S 758 mmHg 93%
20:00 +25°C° 0.1 mm 3 m/S 759 mmHg 93%
21:00 +25°C° 0.1 mm 2 m/S 760 mmHg 93%
22:00 +25°C° 0.2 mm 3 m/S 760 mmHg 92%
23:00 +25°C° 0.2 mm 3 m/S 759 mmHg 92%

28 Juni, Montag

Zeit Temperatur Niederschläge Wind Luftdruck Luftfeuchtigkeit
00:00 +25°C° 0.2 mm 4 m/S 759 mmHg 91%
01:00 +25°C° 0 mm 4 m/S 759 mmHg 92%
02:00 +25°C° 0 mm 4 m/S 758 mmHg 93%
03:00 +25°C° 0 mm 4 m/S 758 mmHg 93%
04:00 +25°C° 0.4 mm 3 m/S 759 mmHg 93%
05:00 +25°C° 0.4 mm 2 m/S 759 mmHg 93%
06:00 +25°C° 0.4 mm 1 m/S 760 mmHg 93%
07:00 +26°C° 0.2 mm 2 m/S 760 mmHg 87%
08:00 +28°C° 0.2 mm 3 m/S 760 mmHg 82%
09:00 +29°C° 0.2 mm 3 m/S 761 mmHg 77%
10:00 +30°C° 0.3 mm 4 m/S 760 mmHg 75%
11:00 +30°C° 0.3 mm 5 m/S 760 mmHg 73%
12:00 +32°C° 0.3 mm 5 m/S 760 mmHg 71%
13:00 +32°C° 0.5 mm 5 m/S 760 mmHg 72%
14:00 +30°C° 0.5 mm 5 m/S 759 mmHg 73%
15:00 +30°C° 0.5 mm 5 m/S 759 mmHg 74%
16:00 +29°C° 0.4 mm 5 m/S 759 mmHg 78%
17:00 +28°C° 0.4 mm 4 m/S 760 mmHg 82%
18:00 +27°C° 0.4 mm 4 m/S 760 mmHg 85%
19:00 +27°C° 1.7 mm 3 m/S 761 mmHg 88%
20:00 +26°C° 1.7 mm 3 m/S 761 mmHg 90%
21:00 +26°C° 1.7 mm 2 m/S 762 mmHg 93%
22:00 +26°C° 0.5 mm 3 m/S 761 mmHg 93%
23:00 +26°C° 0.5 mm 3 m/S 761 mmHg 93%
Mehr zeigen

Wir brauchen deine Erlaubnis

Meteoprog und unser Service Anbieter werden persönliche Daten aufbewahren, so wie Cookies, Geräte Bezeichnung oder ähnliche Technologien von deinem Gerät und Prozess, so wie Persönliche Daten Inhalte und Werbungen, genauso wie social Media und den Verkehr zu analysieren.

  • Aufbewahrung und/oder Zugang zu deiner Geräte Informationen.

    Cookies, Geräte Bezeichnung oder andere Informationen, können aufbewahrt oder Zugang zu deinem Gerät erhalten, für den Grund, der oben angegeben wird.

  • Personalisierte Werbung und Inhalte, Messungen, Einblick in das Publikum und Produkt Entwicklung.

    Werbungen und Inhalte können personalisiert werden, basierend auf ein Profil. Mehr Daten können besser personalisierte Werbungen und Inhalte hinzufügen. Werbung und Inhalte können gezeigt und gemessen werden. Einblicke über das Publikum, welche die Werbung gesehen haben und den Inhalt, können abgeleitet werden. So wie Daten können genutzt werden, um es zu verbessern oder die Benutzer Erfahrung zu verbessern das System und die Software.

Wenn du “Ich stimme zu” klickst, erlaubst du uns, die Cookies zu benutzen die Geräte Bezeichnung, den Web oder ähnliche Technologien zu benutzen. Deine Settings, können in deinem Gerät bei deinem Browser geändert werden.

Für den bestimmten Zweck, berechtigten Interessen beruhen darauf, mehr als auf den Inhalt. Du kannst mehr darüber in unseren Privaten und Cookie Politik lesen.